Reno - Stead, NV

4:55 PM PDT on August 20, 2017 (GMT -0700)
Reno - Stead

Weather History for KRTS - June, 2014

Change the Weather History Date:

Monday, June 2, 2014

  Actual Average (KRNO) Record (KRNO)
Temperature  
Mean Temperature 60 °F -  
Max Temperature 77 °F 79 °F 96 °F (1970)
Min Temperature 42 °F 43 °F 29 °F (1966)
Degree Days  
Heating Degree Days 6    
Growing Degree Days 10 (Base 50)    
Moisture  
Dew Point 23 °F    
Average Humidity 24    
Maximum Humidity 39    
Minimum Humidity 11    
Precipitation  
Precipitation 0.00 in - - ()
Sea Level Pressure  
Sea Level Pressure 29.95 in    
Wind  
Wind Speed 8 mph (NW)    
Max Wind Speed 24 mph    
Max Gust Speed 34 mph    
Visibility 10 miles    
Events      
Averages and records for this station are not official NWS values.
T = Trace of Precipitation, MM = Missing Value Source: NWS Daily Summary

Daily Weather History Graph

Daily Weather History Graph

Search for Another Location

Airport or City:

Trip Planner

Search our weather history database for the weather conditions in past years. The results will help you decide how hot, cold, wet, or windy it might be!

Date:

Astronomy

Jun. 02, 2014 Rise Set
Actual Time 5:33 AM PDT 8:22 PM PDT
Civil Twilight 5:01 AM PDT 8:54 PM PDT
Nautical Twilight 4:21 AM PDT 9:34 PM PDT
Astronomical Twilight 3:35 AM PDT 10:20 PM PDT
Moon 10:04 AM PDT (6/2) 11:54 PM PDT (6/2)
Length of Visible Light 15h 52m
Length of Day
14h 48m
Waxing Crescent, 22% of the Moon is Illuminated
Jun 2
Waxing Crescent
Jun 5
First Quarter
Jun 12
Full
Jun 19
Last Quarter
Jun 27
New

Hourly Weather History & Observations

Time (PDT) Temp. Windchill Dew Point Humidity Pressure Visibility Wind Dir Wind Speed Gust Speed Precip Events Conditions
12:10 AM 55.4 °F - 21.2 °F 26% 29.98 in 10.0 mi NNW 9.2 mph - N/A   Clear
12:30 AM 51.8 °F - 17.6 °F 26% 29.98 in 10.0 mi NNW 6.9 mph - N/A   Clear
12:50 AM 50.0 °F - 19.4 °F 30% 29.98 in 10.0 mi North 8.1 mph - N/A   Clear
1:10 AM 51.8 °F - 19.4 °F 28% 29.98 in 10.0 mi North 8.1 mph - N/A   Clear
1:30 AM 53.6 °F - 19.4 °F 26% 29.98 in 10.0 mi NNW 5.8 mph - N/A   Clear
1:50 AM 50.0 °F - 19.4 °F 30% 29.98 in 10.0 mi North 5.8 mph - N/A   Clear
2:10 AM 53.6 °F - 21.2 °F 28% 29.98 in 10.0 mi NNE 4.6 mph - N/A   Clear
2:30 AM 50.0 °F - 21.2 °F 32% 29.98 in 10.0 mi Calm Calm - N/A   Clear
2:50 AM 46.4 °F 44.3 °F 19.4 °F 34% 29.97 in 10.0 mi North 4.6 mph - N/A   Clear
3:10 AM 46.4 °F 42.9 °F 19.4 °F 34% 29.97 in 10.0 mi NW 6.9 mph - N/A   Clear
3:30 AM 46.4 °F 42.9 °F 19.4 °F 34% 29.96 in 10.0 mi NNW 6.9 mph - N/A   Clear
3:50 AM 46.4 °F 43.5 °F 19.4 °F 34% 29.96 in 10.0 mi NW 5.8 mph - N/A   Clear
4:10 AM 44.6 °F 40.2 °F 17.6 °F 34% 29.96 in 10.0 mi NNW 8.1 mph - N/A   Clear
4:30 AM 48.2 °F - 19.4 °F 32% 29.96 in 10.0 mi Calm Calm - N/A   Clear
4:50 AM 44.6 °F 40.2 °F 19.4 °F 37% 29.95 in 10.0 mi North 8.1 mph - N/A   Clear
5:10 AM 46.4 °F 41.9 °F 21.2 °F 37% 29.95 in 10.0 mi North 9.2 mph - N/A   Clear
5:30 AM 46.4 °F 45.2 °F 21.2 °F 37% 29.96 in 10.0 mi North 3.5 mph - N/A   Clear
5:50 AM 48.2 °F - 23.0 °F 37% 29.96 in 10.0 mi Calm Calm - N/A   Clear
6:10 AM 42.8 °F - 19.4 °F 39% 29.96 in 10.0 mi Calm Calm - N/A   Clear
6:30 AM 46.4 °F 42.9 °F 21.2 °F 37% 29.96 in 10.0 mi North 6.9 mph - N/A   Clear
6:50 AM 50.0 °F - 23.0 °F 35% 29.97 in 10.0 mi Calm Calm - N/A   Clear
7:10 AM 53.6 °F - 24.8 °F 33% 29.96 in 10.0 mi Calm Calm - N/A   Clear
7:30 AM 55.4 °F - 24.8 °F 31% 29.96 in 10.0 mi Calm Calm - N/A   Clear
7:50 AM 59.0 °F - 24.8 °F 27% 29.96 in 10.0 mi Calm Calm - N/A   Clear
8:10 AM 62.6 °F - 26.6 °F 26% 29.96 in 10.0 mi Calm Calm - N/A   Clear
8:30 AM 64.4 °F - 24.8 °F 22% 29.96 in 10.0 mi West 3.5 mph - N/A   Clear
8:50 AM 66.2 °F - 24.8 °F 21% 29.96 in 10.0 mi Calm Calm - N/A   Clear
9:10 AM 68.0 °F - 23.0 °F 18% 29.96 in 10.0 mi Calm Calm - N/A   Clear
9:50 AM 71.6 °F - 23.0 °F 16% 29.95 in 10.0 mi WSW 4.6 mph - N/A   Clear
10:30 AM 71.6 °F - 21.2 °F 15% 29.94 in 10.0 mi Calm Calm - N/A   Clear
11:10 AM 75.2 °F - 23.0 °F 14% 29.94 in 10.0 mi SW 8.1 mph - N/A   Clear
11:30 AM 75.2 °F - 23.0 °F 14% 29.94 in 10.0 mi WSW 8.1 mph - N/A   Clear
11:50 AM 75.2 °F - 23.0 °F 14% 29.93 in 10.0 mi West 12.7 mph 17.3 mph N/A   Clear
12:10 PM 77.0 °F - 24.8 °F 14% 29.93 in 10.0 mi West 11.5 mph - N/A   Clear
12:35 PM 75.2 °F - 24.8 °F 15% 29.92 in 10.0 mi WNW 3.5 mph - N/A   Clear
12:50 PM 75.2 °F - 24.8 °F 15% 29.91 in 10.0 mi West 13.8 mph 19.6 mph N/A   Partly Cloudy
1:10 PM 75.2 °F - 23.0 °F 14% 29.91 in 10.0 mi WNW 8.1 mph 19.6 mph N/A   Partly Cloudy
1:30 PM 73.4 °F - 21.2 °F 14% 29.91 in 10.0 mi Calm Calm - N/A   Mostly Cloudy
1:50 PM 75.2 °F - 19.4 °F 12% 29.91 in 10.0 mi South 9.2 mph - N/A   Overcast
2:10 PM 73.4 °F - 17.6 °F 12% 29.91 in 10.0 mi NNW 11.5 mph 16.1 mph N/A   Overcast
2:30 PM 73.4 °F - 19.4 °F 13% 29.90 in 10.0 mi ENE 8.1 mph - N/A   Mostly Cloudy
2:50 PM 71.6 °F - 23.0 °F 16% 29.91 in 10.0 mi North 15.0 mph 27.6 mph N/A   Partly Cloudy
3:10 PM 73.4 °F - 23.0 °F 15% 29.90 in 10.0 mi NNE 24.2 mph 34.5 mph N/A   Clear
3:30 PM 73.4 °F - 23.0 °F 15% 29.90 in 10.0 mi North 17.3 mph 31.1 mph N/A   Clear
3:50 PM 73.4 °F - 23.0 °F 15% 29.90 in 10.0 mi North 23.0 mph - N/A   Clear
4:10 PM 73.4 °F - 15.8 °F 11% 29.91 in 10.0 mi East 10.4 mph - N/A   Clear
4:30 PM 73.4 °F - 17.6 °F 12% 29.90 in 10.0 mi ENE 13.8 mph 18.4 mph N/A   Scattered Clouds
4:50 PM 71.6 °F - 24.8 °F 17% 29.90 in 10.0 mi NE 17.3 mph - N/A   Scattered Clouds
5:10 PM 73.4 °F - 19.4 °F 13% 29.90 in 10.0 mi ESE 5.8 mph 20.7 mph N/A   Clear
5:30 PM 73.4 °F - 21.2 °F 14% 29.90 in 10.0 mi North 9.2 mph - N/A   Clear
5:50 PM 75.2 °F - 17.6 °F 11% 29.90 in 10.0 mi WNW 17.3 mph 25.3 mph N/A   Mostly Cloudy
6:10 PM 75.2 °F - 17.6 °F 11% 29.90 in 10.0 mi West 20.7 mph 25.3 mph N/A   Partly Cloudy
6:30 PM 73.4 °F - 24.8 °F 16% 29.91 in 10.0 mi West 17.3 mph - N/A   Clear
6:50 PM 73.4 °F - 24.8 °F 16% 29.91 in 10.0 mi West 19.6 mph 28.8 mph N/A   Clear
7:10 PM 71.6 °F - 24.8 °F 17% 29.92 in 10.0 mi WNW 21.9 mph 27.6 mph N/A   Clear
7:30 PM 69.8 °F - 24.8 °F 18% 29.92 in 10.0 mi West 19.6 mph 26.5 mph N/A   Clear
7:50 PM 68.0 °F - 26.6 °F 21% 29.93 in 10.0 mi WNW 17.3 mph 21.9 mph N/A   Clear
8:10 PM 66.2 °F - 26.6 °F 23% 29.94 in 10.0 mi WNW 12.7 mph - N/A   Clear
8:30 PM 64.4 °F - 28.4 °F 26% 29.94 in 10.0 mi WNW 11.5 mph 20.7 mph N/A   Clear
8:50 PM 64.4 °F - 28.4 °F 26% 29.95 in 10.0 mi WNW 18.4 mph 23.0 mph N/A   Clear
9:10 PM 62.6 °F - 28.4 °F 27% 29.96 in 10.0 mi WNW 13.8 mph 25.3 mph N/A   Clear
9:30 PM 62.6 °F - 28.4 °F 27% 29.96 in 10.0 mi WNW 13.8 mph 23.0 mph N/A   Clear
10:10 PM 59.0 °F - 28.4 °F 31% 29.98 in 10.0 mi NNW 9.2 mph - N/A   Clear
10:30 PM 59.0 °F - 28.4 °F 31% 30.00 in 10.0 mi NNW 5.8 mph - N/A   Clear
10:50 PM 59.0 °F - 28.4 °F 31% 30.00 in 10.0 mi NW 10.4 mph - N/A   Clear
11:10 PM 57.2 °F - 28.4 °F 33% 30.00 in 10.0 mi WNW 11.5 mph - N/A   Clear
11:30 PM 57.2 °F - 26.6 °F 31% 30.00 in 10.0 mi WNW 6.9 mph - N/A   Clear
11:50 PM 55.4 °F - 28.4 °F 36% 30.00 in 10.0 mi West 5.8 mph - N/A   Clear